Weather in Krasnyy Oktyabr

Russia / Vladimir Oblast     56°06′21″N   41°23′00″E
temp.,
°C
wind,
m/s
gust,
m/s
humid.,
%
clouds,
%
prec.,
mm/h
press.,
hPa
HPBL,
m
19 january, wed
wed1900:00−14nw399876 0.0 1013151
03:00−16nw2610083 0.0 101584
06:00−17wnw379988 0.0 101598
09:00−19wnw2410096 0.0 101654
12:00−12wnw239484 0.0 1016168
15:00−11wsw24965 0.0 1016124
18:00−16sw259980 0.0 101666
21:00−15ssw389685 0.0 1015124
20 january, thu
thu2000:00−14ssw41290100 0.0 1014238
03:00−11ssw41484100 0.0 1013342
06:00−10s51587100 0.0 1011404
09:00−10s51691100 0.0 1010424
12:00−7s61592100 0.0 1010464
15:00−7s61592100 0.0 1009552
18:00−9s51692100 0.1 1008516
21:00−10s61792100 0.1 1008538
21 january, fri
fri2100:00−11s61791100 0.0 1008535
03:00−10s51592100 0.1 1008535
06:00−10sse51494100 0.1 1007529
09:00−9sse51494100 0.4 1007510
12:00−8sse51494100 0.6 1007537
15:00−8se61694100 1.3 1006671
18:00−8se61492100 0.4 1006720
21:00−8se51393100 0.6 1005600
22 january, sat
sat2200:00−7se51293100 0.6 1006611
03:00−7se51294100 1.1 1006585
06:00−8se4996100 0.1 1009302
09:00−10se31197100 0.2 1012300
12:00−7se4995100 0.0 1014370
15:00−7ese3895100 0.1 1016388
18:00−12ese269993 0.1 101898
21:00−16ese23100100 0.1 102133
23 january, sun
sun2300:00−19e11100100 0.0 102210
03:00−18e11100100 0.1 102412
06:00−18ene1110098 0.1 102511
09:00−20nne1110097 0.1 10279
12:00−11nne119596 0.0 1028126
15:00−10nnw129680 0.1 102980
18:00−18n1110090 0.0 10329
21:00−20nnw11100100 0.0 10339